Regional Weather Roundup
Issued by NWS Albany, NY

Home | Current Version | Previous Version | Graphics & Text | Print | Product List | Glossary On
Versions: 1 2 3 4 5 6 7 8 9 10 11 12 13 14 15 16 17 18 19 20 21 22 23 24 25 26 27 28 29 30 31 32 33 34 35 36 37 38 39 40 41 42 43 44 45 46 47 48 49 50
916
ASUS41 KALY 110110
RWRALY

NEW YORK STATE HOURLY WEATHER ROUNDUP
NATIONAL WEATHER SERVICE ALBANY NY
800 PM EST SUN DEC 10 2017

NOTE: "FAIR" INDICATES FEW OR NO CLOUDS BELOW 12,000 FEET WITH NO
SIGNIFICANT WEATHER AND/OR NO OBSTRUCTIONS TO VISIBILITY.

NYZ032-033-038>043-046>054-057>066-NYZ062>081-082-084-110200-
EAST


CITY           SKY/WX    TMP DP  RH WIND       PRES   REMARKS
ALBANY         CLOUDY    32  21  64 S10       29.90S WCI  24
GLENS FALLS    CLOUDY    30  19  63 S8        29.88R WCI  22
POUGHKEEPSIE   CLOUDY    34  21  59 SW7       29.95R WCI  28
NEWBURGH       CLOUDY    32  23  69 W12       29.96R WCI  23
MONTGOMERY     MOCLDY    31  21  66 S9        29.94R WCI  23
WHITE PLAINS   PTCLDY    34  20  56 W8        29.97R WCI  27
ISLIP          MOCLDY    35  22  58 W10       30.00R WCI  27
NEW YORK CITY  CLOUDY    37  22  54 SW13      30.00R WCI  29
CENTRAL PARK   CLOUDY    36  22  56 VRB3G16   30.02R
$$

NYZ005>009-017-018-044>046-055-056-110200-
CENTRAL


CITY           SKY/WX    TMP DP  RH WIND       PRES   REMARKS
FULTON         FLURRIES  29  24  82 SW14G23   29.86S WCI  18
SYRACUSE       LGT SNOW  27  27 100 SW3       29.88S FOG
ROME           LGT SNOW  27  26  96 SW5       29.89S FOG     WCI  22
ELMIRA         CLOUDY    32  18  56 SW14      29.89S WCI  22
BINGHAMTON     CLOUDY    26  16  65 SW12      29.84S WCI  16
MONTICELLO     CLEAR     27  18  69 W7        29.90R WCI  19
$$

NYZ026>034-041>043-087-110200-
NORTH


CITY           SKY/WX    TMP DP  RH WIND       PRES   REMARKS
WATERTOWN      CLOUDY    32  24  72 W17       29.81S WCI  21
FORT DRUM      NOT AVBL
OGDENSBURG     FAIR      31  21  68 SW8       29.78S WCI  23
MASSENA        CLOUDY    29  22  75 S12       29.79S WCI  19
SARANAC LAKE   LGT SNOW  22  21  96 SW6       29.72S FOG     WCI  14
PLATTSBURGH    CLOUDY    30  16  56 S6        29.82R WCI  24
$$

NYZ001>004-010>016-019>021-085-110200-
WEST


CITY           SKY/WX    TMP DP  RH WIND       PRES   REMARKS
NIAGARA FALLS  FLURRIES  31  18  58 W15       29.86S WCI  20
BUFFALO        FLURRIES  29  20  69 SW12G18   29.87R WCI  19
DUNKIRK        LGT SNOW  28  18  66 SW15G29   29.90S WCI  16
JAMESTOWN      FLURRIES  25  16  68 SW17G25   29.87S WCI  12
WELLSVILLE     CLOUDY    26  16  65 SW10      29.85R WCI  16
ROCHESTER      LGT SNOW  28  27  96 W9        29.88R VSB 1   WCI  19
PENN YAN       CLOUDY    31  18  58 SW14G22   29.86S WCI  21
$$

             KEY
       WCI = WIND CHILL INDEX
       VSB = VISIBILITY
       HX  = HEAT INDEX
$$




USA.gov is the U.S. government's official web portal to all federal, state and local government web resources and services.